This demonstration page uses our WeatherBlox Daily Observations layout. Learn more.

Left ArrowRight Arrow

Hourly Observations for November 4, 2015

Temp ( °F °C ) Dew Point ( °F °C ) Humidity (%) Winds ( mph kmh ) Pressure ( in mb ) Visibility ( mi km ) Precip ( " mm )
12:15 am 00:15 Cloudy 34 1.1 33 0.6 97 97 NE 3 6 30.00 1016 10 16 N/A
12:53 am 00:53 Cloudy with Light Rain 35 1.7 34 1.1 96 96 NNE 3 6 29.98 1015 10 16 N/A
1:13 am 01:13 Cloudy with Light Rain 35 1.7 33 0.6 93 93 N 5 7 30.03 1017 10 16 N/A
1:26 am 01:26 Cloudy with Light Rain 36 2 34 1 93 93 NNE 3 6 30.03 1017 10 16 N/A
1:53 am 01:53 Cloudy with Light Rain 35 1.7 34 1.1 96 96 N 7 11 29.98 1015 8 13 0.01 0.25
2:08 am 02:08 Cloudy with Light Rain 36 2 34 1 93 93 N 6 9 30.00 1016 8 13 N/A
2:53 am 02:53 Cloudy 35 1.7 34 1.1 96 96 N 7 11 29.98 1015 10 16 N/A
3:22 am 03:22 Cloudy 36 2 34 1 93 93 N 6 9 30.03 1017 10 16 N/A
3:53 am 03:53 Cloudy 36 2.2 34 1.1 93 93 N 6 9 29.99 1016 10 16 N/A
4:42 am 04:42 Cloudy 36 2 36 2 100 100 N 8 13 30.03 1017 9 14 N/A
4:53 am 04:53 Cloudy 36 2.2 34 1.1 93 93 N 6 9 29.99 1016 10 16 N/A
5:01 am 05:01 Cloudy 36 2.2 35 1.7 97 97 N 6 9 30.03 1017 10 16 N/A
5:38 am 05:38 Cloudy 36 2 34 1 93 93 N N/A 30.03 1017 10 16 N/A
5:53 am 05:53 Cloudy with Light Rain 36 2.2 35 1.7 97 97 N N/A 30.00 1016 10 16 N/A
6:53 am 06:53 Cloudy 37 2.8 35 1.7 93 93 WNW 3 6 30.01 1016 10 16 N/A
7:53 am 07:53 Cloudy 35 1.7 34 1.1 96 96 NW 10 17 30.03 1017 10 16 N/A
8:18 am 08:18 Cloudy 36 2 34 1 93 93 NW 9 15 30.06 1018 10 16 N/A
8:27 am 08:27 Cloudy 35 1.7 34 1.1 96 96 NW 9 15 30.06 1018 10 16 N/A
8:53 am 08:53 Cloudy 35 1.7 34 1.1 96 96 NW 9 15 30.04 1017 10 16 N/A
9:13 am 09:13 Cloudy 36 2.2 34 1.1 93 93 NW 8 13 30.06 1018 10 16 N/A
9:53 am 09:53 Cloudy 36 2.2 35 1.7 97 97 WNW 5 7 30.04 1017 10 16 N/A
10:53 am 10:53 Cloudy 38 3.3 36 2.2 93 93 NW 5 7 30.03 1017 10 16 N/A
11:12 am 11:12 Cloudy 37 3 36 2 93 93 NW 3 6 30.06 1018 10 16 N/A
11:53 am 11:53 Cloudy 39 3.9 35 1.7 86 86 N N/A 30.00 1016 10 16 N/A
12:44 pm 12:44 Cloudy 39 4 34 1 81 81 N N/A 29.97 1015 10 16 N/A
12:53 pm 12:53 Cloudy 40 4.4 34 1.1 79 79 N N/A 29.98 1015 10 16 N/A
1:20 pm 13:20 Cloudy 39 4 36 2 87 87 WSW 7 11 29.97 1015 10 16 N/A
1:53 pm 13:53 Cloudy 41 5 35 1.7 79 79 SW 7 11 29.96 1015 10 16 N/A
2:53 pm 14:53 Cloudy 40 4.4 34 1.1 79 79 SSW 3 6 29.96 1014 10 16 N/A
3:53 pm 15:53 Cloudy 41 5 34 1.1 76 76 S 3 6 29.95 1014 10 16 N/A
4:13 pm 16:13 Cloudy 40 4.4 35 1.7 83 83 S 6 9 29.97 1015 10 16 N/A
4:22 pm 16:22 Cloudy 39 4 36 2 87 87 SSE 6 9 29.97 1015 10 16 N/A
4:35 pm 16:35 Cloudy 40 4.4 36 2.2 86 86 SSE 5 7 29.97 1015 10 16 N/A
4:53 pm 16:53 Cloudy 40 4.4 35 1.7 83 83 S 5 7 29.94 1014 10 16 N/A
5:21 pm 17:21 Cloudy 38 3.3 34 1.1 86 86 S 7 11 29.94 1014 10 16 N/A
5:53 pm 17:53 Partly Cloudy 34 1.1 32 undefined 92 92 S 7 11 29.96 1014 10 16 N/A
6:53 pm 18:53 Clear 31 -0.6 29 -1.7 92 92 SW 6 9 29.97 1015 10 16 N/A
7:53 pm 19:53 Clear 31 -0.6 29 -1.7 92 92 N N/A 29.96 1015 10 16 N/A
8:53 pm 20:53 Clear 29 -1.7 26 -3.3 89 89 SSE 6 9 29.96 1015 10 16 N/A
9:53 pm 21:53 Clear 29 -1.7 26 -3.3 89 89 WSW 5 7 29.93 1014 10 16 N/A
10:53 pm 22:53 Clear 27 -2.8 26 -3.3 96 96 SW 8 13 29.92 1013 10 16 N/A
11:53 pm 23:53 Clear 27 -2.8 25 -3.9 92 92 W 8 13 29.91 1013 10 16 N/A

Powered by AerisWeather